Location: Newark
(51.3318°N, 0.0053°E)
Time: 10:09:51
(UTC+00:00)

STRAND 1 - Visible Passes

Search period start: 30 June 2022 00:00
Search period end: 10 July 2022 00:00
Orbit: 768 x 780 km, 98.4° (Epoch: 29 June)

Date Brightness Start Highest point End Pass type
(mag) Time Alt. Az. Time Alt. Az. Time Alt. Az.
01 Jul ? 21:22:13 10° NNW 21:24:33 13° NW 21:26:53 10° WNW visible
04 Jul ? 21:18:41 10° NNW 21:21:13 14° NW 21:23:44 10° W visible
07 Jul ? 21:15:11 10° NNW 21:17:53 15° NW 21:20:34 10° W visible
